Stations météo

Publicité
Le Touquet, France (7003): Température de l'air & dewpoint: 13.11.2017 20:00:00 - 19.11.2017 20:00:00 (CET)Le Touquet, France (7003): Température de l'air 5cm: 13.11.2017 20:00:00 - 19.11.2017 20:00:00 (CET)Le Touquet, France (7003): Vitesse du vent & gusts: 13.11.2017 20:00:00 - 19.11.2017 20:00:00 (CET)Le Touquet, France (7003): Direction du vent: 13.11.2017 20:00:00 - 19.11.2017 20:00:00 (CET)Le Touquet, France (7003): reduced air pressure: 13.11.2017 20:00:00 - 19.11.2017 20:00:00 (CET)Le Touquet, France (7003): visibility: 13.11.2017 20:00:00 - 19.11.2017 20:00:00 (CET)Le Touquet, France (7003): Ensoleillement: 13.11.2017 20:00:00 - 19.11.2017 20:00:00 (CET)Le Touquet, France (7003): Quantités de précipitations: 13.11.2017 20:00:00 - 19.11.2017 20:00:00 (CET)
Date & Time tt [°C] td [°C] tt 5cm [°C] ff [km/h] ff [knt] fx [km/h] fx [knt] dd ppp [hPa] vv [km] sd [min] rr [mm]
19.11.2017 20:00:00 3,7 2,7 1,3 4 2 7 4 SSE 1024,6 10 0 0,0
19.11.2017 19:00:00 2,9 1,9 0,1 4 2 6 3 SE 1024,8 17 0 0,0
19.11.2017 18:00:00 3,4 1,8 0,6 0 0 8 4 N 1024,4 10 0 0,0
19.11.2017 17:00:00 5,6 1,9 2,4 4 2 8 4 WNW 1024,2 10 24 0,0
19.11.2017 16:00:00 7,9 1,7 5,2 5 3 16 8 NW 1024,1 10 42 0,0
19.11.2017 15:00:00 8,1 2,1 7,1 10 6 21 11 NW 1024,1 56 53 0,0
19.11.2017 14:00:00 8,4 2,4 9,1 13 7 21 11 NW 1024,2 10 44 0,0
19.11.2017 13:00:00 8,2 1,8 7,7 13 7 21 11 NNW 1024,1 10 60 0,0
19.11.2017 12:00:00 7,8 2,3 7,3 15 8 23 12 NW 1024,1 10 57 0,0
19.11.2017 11:00:00 7,3 2,2 6,7 17 9 25 13 NNW 1024,0 60 56 0,0
19.11.2017 10:00:00 6,3 1,8 2,0 0 0 6 3 N 1023,5 10 60 0,0
19.11.2017 09:00:00 4,1 1,1 1,0 4 2 18 10 NNE 1023,1 10 8 0,0
19.11.2017 08:00:00 4,8 1,5 3,1 15 8 31 17 N 1022,4 10 0 0,0
19.11.2017 07:00:00 5,0 2,9 1,4 9 5 14 8 N 1021,7 10 0 0,0
19.11.2017 06:00:00 4,4 2,9 1,5 8 4 14 7 N 1021,5 10 0 0,0
19.11.2017 05:00:00 4,7 2,9 1,5 0 0 16 8 N 1021,2 10 0 0,0
19.11.2017 04:00:00 6,2 3,7 4,2 13 7 22 12 N 1020,9 10 0 0,0
19.11.2017 03:00:00 6,9 4,0 5,5 16 9 34 19 N 1020,6 46 0 0,0
19.11.2017 02:00:00 7,6 5,4 6,2 16 9 29 16 N 1020,3 10 0 0,0
19.11.2017 01:00:00 8,7 6,5 7,6 16 9 29 16 N 1020,4 10 0 0,0
19.11.2017 00:00:00 8,9 6,9 7,4 18 10 29 16 NNW 1019,9 10 0 0,0
18.11.2017 23:00:00 8,5 7,1 7,8 16 9 26 14 N 1020,1 10 0 0,2
18.11.2017 22:00:00 8,5 7,7 7,9 15 8 22 12 N 1020,1 10 0 0,2
18.11.2017 21:00:00 8,9 8,3 8,5 14 7 46 25 N 1020,0 8 0 1,2
18.11.2017 20:00:00 11,1 10,8 10,7 26 14 50 27 NW 1019,6 5 0 2,6
18.11.2017 19:00:00 11,3 10,8 10,6 24 13 40 22 WNW 1019,9 4,4 0 2,3
18.11.2017 18:00:00 11,1 10,6 - 18 10 46 25 W 1020,3 5 - 2,0
18.11.2017 17:00:00 10,7 9,6 9,9 21 12 49 26 W 1020,8 4,9 0 1,2
18.11.2017 16:00:00 10,6 10,0 9,7 22 12 40 22 W 1021,3 3,5 0 1,2
18.11.2017 15:00:00 10,5 8,6 9,7 21 11 41 22 W 1022,0 3,7 0 0,2
18.11.2017 14:00:00 11,0 6,9 10,2 15 8 31 17 W 1022,5 10 0 0,0
18.11.2017 13:00:00 10,7 6,3 10,1 18 10 32 17 W 1023,7 10 11 0,0
18.11.2017 12:00:00 10,0 5,4 9,3 15 8 29 16 WNW 1024,5 10 4 0,0
18.11.2017 11:00:00 9,6 4,6 7,6 16 9 31 17 WNW 1024,9 10 4 0,0
18.11.2017 10:00:00 8,8 3,0 5,5 18 10 31 17 WNW 1025,0 10 8 0,0
18.11.2017 09:00:00 7,8 1,8 5,1 16 9 37 20 WNW 1025,0 55 3 0,0
18.11.2017 08:00:00 7,9 2,1 4,2 22 12 41 22 NW 1024,9 10 0 0,0
18.11.2017 07:00:00 6,6 2,1 -0,1 18 10 35 19 WNW 1025,1 10 0 0,0
18.11.2017 06:00:00 0,3 0,0 -1,3 9 5 12 6 SE 1025,3 9 0 0,0
18.11.2017 05:00:00 -0,5 -0,8 -1,5 4 2 7 4 SSE 1025,9 7 0 0,0
18.11.2017 04:00:00 0,3 0,0 -1,6 4 2 6 3 - 1026,3 7 0 0,0
18.11.2017 03:00:00 0,4 0,1 -1,6 4 2 7 4 SSE 1026,7 9 0 0,0
18.11.2017 02:00:00 0,5 0,1 -1,2 4 2 8 4 SSE 1027,2 7 0 0,0
18.11.2017 01:00:00 1,0 0,7 -0,7 5 3 9 5 SSE 1027,3 8 0 0,0
18.11.2017 00:00:00 1,7 1,3 -0,5 5 3 10 5 SSE 1027,5 5 0 0,0
17.11.2017 23:00:00 2,1 1,7 -0,4 5 3 8 5 SSE 1028,0 6 0 0,0
17.11.2017 22:00:00 2,1 1,7 0,1 0 0 6 3 N 1028,1 4,1 0 0,0
17.11.2017 21:00:00 2,7 2,1 0,2 2 1 6 4 - 1027,9 7 0 0,0
17.11.2017 20:00:00 3,4 2,7 1,5 0 0 4 2 N 1028,4 10 0 0,0
17.11.2017 19:00:00 5,0 3,5 1,9 0 0 7 4 N 1028,1 10 0 0,0
17.11.2017 18:00:00 6,2 3,9 3,0 4 2 7 4 - 1028,2 10 0 0,0
17.11.2017 17:00:00 7,7 5,0 5,1 5 3 12 6 N 1028,3 57 23 0,0
17.11.2017 16:00:00 10,1 4,7 7,9 5 3 13 7 NNE 1028,2 10 60 0,0
17.11.2017 15:00:00 11,0 5,3 10,2 8 4 17 9 N 1028,4 10 36 0,0
17.11.2017 14:00:00 10,9 5,4 10,3 0 0 13 7 N 1028,8 10 9 0,0
17.11.2017 13:00:00 10,2 4,8 9,7 10 5 13 7 N 1029,4 53 52 0,0
17.11.2017 12:00:00 10,7 4,6 9,7 8 4 12 6 NE 1029,2 10 60 0,0
17.11.2017 11:00:00 10,1 4,9 8,1 5 3 12 6 NNE 1029,2 10 56 0,0
17.11.2017 10:00:00 8,2 6,5 6,7 2 1 7 4 - 1029,1 10 4 0,0
17.11.2017 09:00:00 7,8 6,3 6,7 5 3 13 7 - 1029,0 10 0 0,0
17.11.2017 08:00:00 7,4 6,7 6,1 0 0 7 4 N 1028,7 57 0 0,0
17.11.2017 07:00:00 6,8 6,2 4,6 5 3 6 3 NW 1028,4 19 0 0,0
17.11.2017 06:00:00 7,4 6,7 5,5 4 2 9 5 WNW 1027,9 20 0 0,0
17.11.2017 05:00:00 7,6 6,5 5,3 6 3 8 4 N 1027,7 19 0 0,0
17.11.2017 04:00:00 8,9 7,5 8,0 6 3 14 8 NNE 1027,5 51 0 0,2
17.11.2017 03:00:00 9,3 8,1 8,4 5 3 11 6 N 1027,3 19 0 0,0
17.11.2017 02:00:00 9,5 7,9 8,5 6 3 17 9 NNE 1026,9 19 0 0,0
17.11.2017 01:00:00 9,7 7,8 8,6 7 4 31 17 NNE 1026,7 58 0 0,0
17.11.2017 00:00:00 10,1 8,7 9,3 18 10 34 18 NE 1026,2 20 0 0,0
16.11.2017 23:00:00 10,7 9,9 6,4 12 7 21 12 N 1026,0 12 0 0,2
16.11.2017 22:00:00 9,9 9,0 6,4 0 0 10 5 N 1025,4 6 0 0,0
16.11.2017 21:00:00 11,7 10,4 9,2 8 4 14 8 W 1025,2 20 0 0,0
16.11.2017 20:00:00 12,0 10,4 10,6 7 4 11 6 W 1024,9 39 0 0,0
16.11.2017 19:00:00 11,8 10,0 10,4 5 3 10 5 WSW 1024,5 53 0 0,0
16.11.2017 18:00:00 11,8 9,9 10,5 6 3 14 8 WSW 1024,0 59 0 0,0
16.11.2017 17:00:00 11,9 9,8 10,5 8 4 16 9 W 1023,9 60 0 0,0
16.11.2017 16:00:00 11,9 9,6 10,7 10 5 21 11 W 1023,6 60 0 0,0
16.11.2017 15:00:00 11,5 10,6 11,0 8 4 16 9 W 1023,5 60 0 0,2
16.11.2017 14:00:00 11,6 11,1 11,4 3 2 13 7 WSW 1023,6 4,4 0 0,8
16.11.2017 13:00:00 11,7 11,1 11,0 11 6 24 13 W 1023,5 10 0 0,8
16.11.2017 12:00:00 11,3 11,0 11,1 13 7 21 11 WSW 1023,8 10 0 1,0
16.11.2017 11:00:00 11,5 11,2 11,0 9 5 23 12 SW 1023,9 2,2 0 0,2
16.11.2017 10:00:00 11,1 10,8 10,2 11 6 23 12 SW 1023,8 5 0 0,2
16.11.2017 09:00:00 10,6 10,1 10,2 11 6 19 11 SSW 1023,3 4,9 0 0,0
16.11.2017 08:00:00 10,5 10,2 10,0 9 5 22 12 SSW 1023,0 9 0 0,0
16.11.2017 07:00:00 10,4 10,2 9,9 7 4 19 10 S 1022,8 6 0 0,0
16.11.2017 06:00:00 10,1 9,9 9,6 9 5 20 11 SSW 1022,7 4,9 0 0,0
16.11.2017 05:00:00 9,8 9,7 9,5 8 4 16 8 S 1022,9 4,0 0 0,2
16.11.2017 04:00:00 9,9 9,7 9,6 8 4 18 10 S 1023,3 3,6 0 2,0
16.11.2017 03:00:00 10,4 10,2 10,2 9 5 20 11 S 1023,4 4,4 0 3,7
16.11.2017 02:00:00 10,6 10,4 10,1 5 3 17 9 S 1023,3 3,2 0 2,4
16.11.2017 01:00:00 10,4 10,1 10,0 9 5 16 8 SSE 1023,9 3,3 0 0,0
16.11.2017 00:00:00 10,4 10,1 10,1 9 5 14 8 SSE 1024,1 5 0 0,0
15.11.2017 23:00:00 10,5 10,2 9,8 8 4 17 9 S 1024,3 4,3 0 0,0
15.11.2017 22:00:00 10,7 10,2 10,2 8 4 12 6 S 1024,5 7 0 0,0
15.11.2017 21:00:00 10,9 10,6 9,9 5 3 9 5 SSE 1024,6 10 0 0,0
15.11.2017 20:00:00 10,9 10,4 8,9 5 3 9 5 SSE 1024,6 10 0 0,0
15.11.2017 19:00:00 10,7 10,1 8,9 5 3 16 9 SSE 1024,8 10 0 0,0
15.11.2017 18:00:00 11,2 10,6 10,3 9 5 18 10 S 1024,8 10 0 0,0
15.11.2017 17:00:00 11,6 10,8 11,0 8 4 16 9 SSW 1024,6 10 0 0,0
15.11.2017 16:00:00 12,2 11,4 11,9 11 6 18 10 SW 1025,0 10 0 0,0
15.11.2017 15:00:00 12,5 11,7 12,5 11 6 22 12 SW 1025,0 10 0 0,0
15.11.2017 14:00:00 12,7 11,4 12,1 13 7 23 12 SSW 1024,9 10 27 0,0
15.11.2017 13:00:00 12,2 11,7 11,9 8 4 17 9 SW 1025,2 10 0 0,0
15.11.2017 12:00:00 11,5 11,2 11,3 5 3 10 5 E 1025,6 7 0 0,2
15.11.2017 11:00:00 11,1 10,8 10,6 8 4 9 5 SE 1025,7 7 0 0,0
15.11.2017 10:00:00 10,6 10,3 10,4 4 2 12 6 - 1025,8 3,6 0 0,2
15.11.2017 09:00:00 10,5 10,2 9,5 5 3 10 5 SE 1025,6 8 0 0,0
15.11.2017 08:00:00 10,5 10,2 9,4 0 0 6 4 N 1025,4 7 0 0,0
15.11.2017 07:00:00 10,4 9,9 9,4 0 0 8 4 N 1024,9 9 0 0,0
15.11.2017 06:00:00 10,7 10,2 9,2 6 3 13 7 SSW 1024,8 45 0 0,0
15.11.2017 05:00:00 10,6 9,8 9,3 0 0 20 11 N 1024,7 10 0 0,0
15.11.2017 04:00:00 11,0 10,4 9,6 4 2 11 6 - 1025,0 10 0 0,0
15.11.2017 03:00:00 10,9 10,6 10,1 5 3 13 7 SW 1025,2 10 0 0,2
15.11.2017 02:00:00 11,2 10,9 10,5 4 2 13 7 WNW 1025,0 9 0 0,4
15.11.2017 01:00:00 11,4 10,8 10,7 4 2 19 11 - 1025,2 10 0 0,4
15.11.2017 00:00:00 11,7 10,8 10,5 4 2 22 12 - 1025,1 10 0 0,2
14.11.2017 23:00:00 11,9 10,6 10,3 8 4 16 8 WSW 1025,1 10 0 0,0
14.11.2017 22:00:00 11,6 10,2 10,5 7 4 16 9 SW 1025,1 17 0 0,0
14.11.2017 21:00:00 11,5 10,2 - 8 4 13 7 WSW 1025,3 10 - 0,0
14.11.2017 20:00:00 11,3 10,4 - 5 3 15 8 WSW 1025,2 10 - 0,0
14.11.2017 19:00:00 11,0 10,5 10,1 11 6 17 9 WSW 1025,1 10 0 0,0
14.11.2017 18:00:00 10,8 10,5 10,2 9 5 26 14 WSW 1025,0 10 0 0,4
14.11.2017 17:00:00 10,9 10,4 10,4 11 6 21 11 WSW 1024,8 10 0 0,2
14.11.2017 16:00:00 10,9 10,3 10,6 11 6 22 12 W 1024,8 10 0 0,2
14.11.2017 15:00:00 11,3 9,6 11,0 13 7 25 14 W 1024,9 10 0 0,0
14.11.2017 14:00:00 12,0 7,5 11,7 13 7 28 15 W 1025,0 10 0 0,0
14.11.2017 13:00:00 12,2 7,3 11,7 15 8 25 14 W 1025,2 10 0 0,0
14.11.2017 12:00:00 10,5 7,7 9,5 4 2 19 10 - 1025,7 10 0 0,0
14.11.2017 11:00:00 7,9 6,8 6,1 11 6 14 8 ESE 1025,7 10 11 0,0
14.11.2017 10:00:00 5,7 5,1 3,8 9 5 13 7 ESE 1025,8 10 2 0,0
14.11.2017 09:00:00 3,5 3,2 2,7 8 4 9 5 SE 1025,4 10 0 0,0
14.11.2017 08:00:00 2,8 2,5 0,6 5 3 11 6 SE 1025,4 9 0 0,0
14.11.2017 07:00:00 1,8 1,5 -0,5 8 4 10 5 SE 1025,2 7 0 0,0
14.11.2017 06:00:00 2,2 1,9 0,2 8 4 9 5 SE 1025,4 7 0 0,0
14.11.2017 05:00:00 2,6 2,3 0,6 5 3 10 5 SSE 1025,6 7 0 0,0
14.11.2017 04:00:00 1,6 1,3 -0,6 4 2 8 4 SSE 1025,9 7 0 0,0
14.11.2017 03:00:00 1,5 1,1 -0,6 4 2 8 4 SSE 1026,1 6 0 0,0
14.11.2017 02:00:00 1,5 1,1 -0,3 5 3 10 5 SE 1026,3 8 0 0,0
14.11.2017 01:00:00 1,7 1,3 -0,8 3 1 8 4 SSE 1026,5 6 0 0,0
14.11.2017 00:00:00 2,0 1,6 - 5 3 8 4 SE 1026,7 9 - 0,0
13.11.2017 23:00:00 2,3 1,6 -0,6 4 2 4 2 SSE 1026,7 9 0 0,0
13.11.2017 22:00:00 3,1 2,2 -0,1 0 0 6 4 N 1026,6 10 0 0,0
13.11.2017 21:00:00 3,7 2,7 -0,1 2 1 10 5 - 1026,6 10 0 0,0
13.11.2017 20:00:00 3,9 3,0 -0,2 5 3 12 7 SW 1026,5 10 0 0,0

tt = Température de l'air
td = dewpoint
tt 5cm = Température de l'air 5cm
ff = Vitesse du vent
fx = gusts
dd = Direction du vent
ppp = reduced air pressure
vv = visibility
sd = Ensoleillement
rr = Quantités de précipitations

stations d'obs. à proximité